Bellaire, MI

8:03 AM EDT on May 25, 2017 (GMT -0400)
Antrim County

Weather History for KACB - October, 2011

Change the Weather History Date:

Saturday, October 22, 2011

  Actual Average (KCVX) Record (KCVX)
Temperature  
Mean Temperature 44 °F -  
Max Temperature 59 °F 47 °F 68 °F (2007)
Min Temperature 28 °F 39 °F 26 °F (2008)
Degree Days  
Heating Degree Days 22    
Moisture  
Dew Point 32 °F    
Average Humidity 76    
Maximum Humidity 100    
Minimum Humidity 36    
Precipitation  
Precipitation 0.00 in - - ()
Sea Level Pressure  
Sea Level Pressure 30.01 in    
Wind  
Wind Speed 1 mph (SW)    
Max Wind Speed 7 mph    
Max Gust Speed -    
Visibility 8 miles    
Events      
Averages and records for this station are not official NWS values.
T = Trace of Precipitation, MM = Missing Value Source: NWS Daily Summary

Daily Weather History Graph

Daily Weather History Graph

Search for Another Location

Airport or City:

Trip Planner

Search our weather history database for the weather conditions in past years. The results will help you decide how hot, cold, wet, or windy it might be!

Date:

Astronomy

Oct. 22, 2011 Rise Set
Actual Time 8:05 AM EDT 6:44 PM EDT
Civil Twilight 7:35 AM EDT 7:14 PM EDT
Nautical Twilight 7:01 AM EDT 7:48 PM EDT
Astronomical Twilight 6:27 AM EDT 8:22 PM EDT
Moon 2:49 AM EDT (10/22) 4:12 PM EDT (10/22)
Length of Visible Light 11h 39m
Length of Day
10h 39m
Waning Crescent, 24% of the Moon is Illuminated
Oct 22
Waning Crescent
Oct 26
New
Nov 2
First Quarter
Nov 10
Full
Nov 18
Last Quarter

Hourly Weather History & Observations

Time (EDT) Temp. Windchill Dew Point Humidity Pressure Visibility Wind Dir Wind Speed Gust Speed Precip Events Conditions
12:10 AM 32.0 °F - 30.2 °F 93% 30.03 in 5.0 mi Calm Calm - N/A   Clear
12:30 AM 32.0 °F - 30.2 °F 93% 30.03 in 5.0 mi Calm Calm - N/A   Clear
12:50 AM 30.2 °F - 30.2 °F 100% 30.03 in 7.0 mi Calm Calm - N/A   Clear
1:10 AM 30.2 °F - 28.4 °F 93% 30.03 in 2.5 mi Calm Calm - N/A   Clear
1:30 AM 30.2 °F - 30.2 °F 100% 30.02 in 5.0 mi Calm Calm - N/A   Clear
1:50 AM 30.2 °F - 28.4 °F 93% 30.03 in 7.0 mi Calm Calm - N/A   Clear
2:10 AM 30.2 °F - 30.2 °F 100% 30.03 in 7.0 mi Calm Calm - N/A   Clear
2:30 AM 30.2 °F - 28.4 °F 93% 30.03 in 4.0 mi Calm Calm - N/A   Clear
3:11 AM 30.2 °F - 28.4 °F 93% 30.03 in 4.0 mi Calm Calm - N/A   Clear
3:30 AM 30.2 °F - 28.4 °F 93% 30.02 in 5.0 mi Calm Calm - N/A   Clear
3:50 AM 30.2 °F - 28.4 °F 93% 30.02 in 1.5 mi Calm Calm - N/A   Mist
4:10 AM 30.2 °F - 28.4 °F 93% 30.02 in 4.0 mi Calm Calm - N/A   Clear
4:30 AM 28.4 °F - 28.4 °F 100% 30.01 in 2.5 mi Calm Calm - N/A   Clear
4:50 AM 30.2 °F - 28.4 °F 93% 30.01 in 10.0 mi Calm Calm - N/A   Clear
5:10 AM 30.2 °F - 28.4 °F 93% 30.01 in 5.0 mi Calm Calm - N/A   Clear
5:30 AM 28.4 °F - 28.4 °F 100% 30.01 in 10.0 mi Calm Calm - N/A   Clear
5:50 AM 30.2 °F - 28.4 °F 93% 30.01 in 7.0 mi Calm Calm - N/A   Clear
6:10 AM 28.4 °F - 28.4 °F 100% 30.01 in 7.0 mi Calm Calm - N/A   Clear
6:30 AM 28.4 °F - 28.4 °F 100% 30.01 in 7.0 mi Calm Calm - N/A   Clear
7:30 AM 30.2 °F - 28.4 °F 93% 30.01 in 7.0 mi Calm Calm - N/A   Clear
7:50 AM 30.2 °F - 28.4 °F 93% 30.01 in 7.0 mi Calm Calm - N/A   Clear
8:10 AM 30.2 °F - 30.2 °F 100% 30.01 in 5.0 mi Calm Calm - N/A   Clear
8:30 AM 30.2 °F - 28.4 °F 93% 30.02 in 5.0 mi Calm Calm - N/A   Clear
8:50 AM 30.2 °F - 30.2 °F 100% 30.02 in 5.0 mi Calm Calm - N/A   Clear
9:10 AM 32.0 °F - 30.2 °F 93% 30.02 in 5.0 mi Calm Calm - N/A   Clear
9:30 AM 32.0 °F - 32.0 °F 100% 30.02 in 5.0 mi Calm Calm - N/A   Clear
9:50 AM 32.0 °F - 32.0 °F 100% 30.02 in 7.0 mi Calm Calm - N/A   Clear
10:10 AM 37.4 °F - 37.4 °F 100% 30.02 in 10.0 mi Calm Calm - N/A   Clear
10:30 AM 42.8 °F 41.1 °F 37.4 °F 81% 30.02 in 10.0 mi South 3.5 mph - N/A   Clear
10:50 AM 44.6 °F 43.1 °F 35.6 °F 71% 30.02 in 10.0 mi South 3.5 mph - N/A   Clear
11:29 AM 46.4 °F 44.3 °F 37.4 °F 71% 30.02 in 10.0 mi South 4.6 mph - N/A   Clear
11:50 AM 48.2 °F - 37.4 °F 66% 30.01 in 10.0 mi South 5.8 mph - N/A   Clear
12:10 PM 50.0 °F - 37.4 °F 62% 30.01 in 10.0 mi Calm Calm - N/A   Clear
12:30 PM 51.8 °F - 35.6 °F 54% 30.01 in 10.0 mi South 5.8 mph - N/A   Clear
12:50 PM 53.6 °F - 35.6 °F 51% 30.01 in 10.0 mi South 5.8 mph - N/A   Clear
1:10 PM 53.6 °F - 33.8 °F 47% 30.00 in 10.0 mi SSW 4.6 mph - N/A   Clear
1:30 PM 55.4 °F - 33.8 °F 44% 30.00 in 10.0 mi SSW 5.8 mph - N/A   Clear
2:10 PM 55.4 °F - 32.0 °F 41% 29.98 in 10.0 mi SSW 4.6 mph - N/A   Clear
2:30 PM 57.2 °F - 32.0 °F 38% 29.98 in 10.0 mi SW 3.5 mph - N/A   Clear
2:50 PM 59.0 °F - 32.0 °F 36% 29.98 in 10.0 mi WSW 6.9 mph - N/A   Clear
3:10 PM 57.2 °F - 32.0 °F 38% 29.98 in 10.0 mi WSW 3.5 mph - N/A   Clear
3:30 PM 57.2 °F - 32.0 °F 38% 29.98 in 10.0 mi SW 4.6 mph - N/A   Clear
3:50 PM 57.2 °F - 32.0 °F 38% 29.98 in 10.0 mi SW 3.5 mph - N/A   Clear
4:10 PM 59.0 °F - 32.0 °F 36% 29.98 in 10.0 mi WSW 4.6 mph - N/A   Clear
4:30 PM 59.0 °F - 32.0 °F 36% 29.98 in 10.0 mi SW 3.5 mph - N/A   Clear
4:50 PM 59.0 °F - 32.0 °F 36% 29.98 in 10.0 mi WSW 3.5 mph - N/A   Clear
5:10 PM 57.2 °F - 33.8 °F 41% 29.99 in 10.0 mi WNW 3.5 mph - N/A   Clear
5:30 PM 57.2 °F - 33.8 °F 41% 29.99 in 10.0 mi Calm Calm - N/A   Clear
5:50 PM 55.4 °F - 37.4 °F 51% 29.99 in 10.0 mi Calm Calm - N/A   Clear
6:10 PM 51.8 °F - 39.2 °F 62% 29.99 in 10.0 mi Calm Calm - N/A   Clear
6:30 PM 51.8 °F - 39.2 °F 62% 30.00 in 10.0 mi Calm Calm - N/A   Clear
6:50 PM 50.0 °F - 39.2 °F 66% 30.01 in 10.0 mi Calm Calm - N/A   Clear
7:10 PM 44.6 °F - 39.2 °F 81% 30.01 in 10.0 mi Calm Calm - N/A   Clear
7:30 PM 42.8 °F - 37.4 °F 81% 30.01 in 10.0 mi Calm Calm - N/A   Clear
7:50 PM 42.8 °F - 37.4 °F 81% 30.02 in 10.0 mi Calm Calm - N/A   Clear
8:10 PM 41.0 °F - 37.4 °F 87% 30.02 in 10.0 mi Calm Calm - N/A   Clear
8:30 PM 39.2 °F - 35.6 °F 87% 30.02 in 10.0 mi Calm Calm - N/A   Clear
8:50 PM 37.4 °F - 35.6 °F 93% 30.02 in 10.0 mi Calm Calm - N/A   Clear
9:09 PM 37.4 °F - 35.6 °F 93% 30.02 in 10.0 mi Calm Calm - N/A   Clear
9:30 PM 35.6 °F - 35.6 °F 100% 30.02 in 10.0 mi Calm Calm - N/A   Clear
9:50 PM 35.6 °F - 33.8 °F 93% 30.02 in 5.0 mi Calm Calm - N/A   Clear
10:10 PM 35.6 °F - 33.8 °F 93% 30.03 in 7.0 mi Calm Calm - N/A   Clear
10:30 PM 35.6 °F - 33.8 °F 93% 30.03 in 5.0 mi Calm Calm - N/A   Clear
10:50 PM 33.8 °F - 32.0 °F 93% 30.03 in 5.0 mi Calm Calm - N/A   Clear
11:10 PM 33.8 °F - 32.0 °F 93% 30.03 in 4.0 mi Calm Calm - N/A   Clear
11:30 PM 33.8 °F - 32.0 °F 93% 30.02 in 3.0 mi Calm Calm - N/A   Clear
11:50 PM 32.0 °F - 32.0 °F 100% 30.01 in 5.0 mi Calm Calm - N/A   Clear